SCP
0 0 0 -0 -0 -0 0 0 -0 0 0 0 0 0 0 -0 -0 0 0 0 0 0 0 0 0 0 0 0 0 0 0 0 0 0 0 0 0 0 0 0 0 0 0 0 0 0 0 0 1
0 0 0 0 -0 -0 0 -0 -0 0 0 0 0 0 0 0 0 0 0 0 0 0 0 0 0 0 0 0 0 0 0 0 0 0 0 0 0 0 0 0 0 0 0 0 0 0 0 0 0
0 0 0 0 0 0 0 -0 -0 0 0 0 0 0 0 0 0 0 0 0 0 0 0 0 0 0 0 0 0 0 0 0 0 0 0 0 0 0 0 0 0 0 0 0 0 0 0 0 0
0 0 0 0 0 0 0 0 -0 0 0 0 0 0 0 0 0 0 0 0 0 0 0 0 0 0 0 0 0 0 0 0 0 0 0 0 0 0 0 0 0 0 0 0 0 0 0 0 0
0 0 0 0 0 0 0 0 -0 0 0 0 0 0 0 0 0 0 0 0 0 0 0 0 0 0 0 0 0 0 0 0 0 0 0 0 0 0 0 0 0 0 0 0 0 0 0 0 0
0 0 0 0 0 0 0 0 0 0 0 0 0 0 0 0 0 0 0 0 0 0 0 0 0 0 0 0 0 0 0 0 0 0 0 0 0 0 0 0 0 0 0 0 0 0 0 0 0
0 0 0 0 0 0 -0 0 0 0 0 0 0 0 0 0 0 0 0 0 0 0 0 0 0 0 0 0 0 0 0 0 0 0 0 0 0 0 0 0 0 0 0 0 0 0 0 0 0
0 0 0 0 0 -0 -0 -0 0 0 0 0 0 0 0 0 0 0 0 0 0 0 0 0 0 0 0 0 0 0 0 0 0 0 0 0 0 0 0 0 0 0 0 0 0 -0 -0 0 0
0 0 0 0 0 0 0 0 0 0 0 0 0 0 0 0 0 0 0 0 0 0 0 0 0 0 0 0 0 0 0 0 0 0 0 0 0 0 0 0 0 0 0 0 -0 -0 -0 0 0
0 0 0 0 0 0 0 0 0 0 0 0 0 0 0 0 0 0 0 0 0 0 0 0 0 0 0 0 0 0 0 0 0 0 0 0 0 0 0 0 0 0 0 0 -0 -0 -0 0 0
0 0 0 0 0 0 0 0 0 0 0 0 0 0 0 0 0 0 0 0 0 0 0 0 0 0 0 0 0 0 0 0 0 0 0 0 0 -0 0 0 0 -0 -0 -0 -0 -0 0 0 0
0 0 0 0 0 0 0 0 0 0 0 0 0 0 0 0 0 0 0 0 0 0 0 0 0 0 0 0 0 0 0 0 0 0 0 0 0 0 -0 -0 -0 -0 -0 -0 -0 0 0 0 0
0 0 0 0 0 0 0 0 0 0 0 0 0 0 0 0 0 0 0 0 0 0 0 0 0 0 0 0 0 0 0 0 0 0 0 0 0 0 -0 -0 -0 -0 -0 -0 0 0 0 0 0
0 0 0 0 0 0 0 0 0 0 0 0 0 0 0 0 0 0 0 0 0 0 0 0 0 0 0 0 0 0 0 0 0 0 0 0 0 0 0 -0 -0 -0 -0 -0 0 0 0 0 0
0 0 0 0 0 0 0 0 0 0 0 0 0 0 0 0 0 0 0 0 0 0 0 0 0 0 0 0 0 0 0 0 0 0 0 0 0 0 0 0 0 -0 -0 -0 -0 0 0 0 0
0 0 0 0 0 0 0 0 0 0 0 0 0 0 0 0 0 0 0 0 0 0 0 0 0 0 0 0 0 0 0 0 0 0 0 0 0 0 0 0 0 0 -0 -0 0 0 0 0 0
0 0 0 0 0 0 0 0 0 0 0 0 0 0 0 0 0 0 0 0 0 0 0 0 0 1 0 0 0 0 0 0 0 0 0 0 0 0 0 0 0 0 0 0 0 0 0 0 0
0 0 0 0 0 0 0 0 0 0 0 0 0 0 0 0 0 0 0 0 0 0 0 1 1 1 1 1 0 0 0 0 0 0 0 0 0 0 0 0 0 0 0 0 0 0 0 0 0
0 0 0 0 0 0 0 0 0 0 0 0 0 0 0 0 0 0 0 0 0 1 1 1 1 1 1 1 1 0 0 0 0 0 0 0 0 0 0 0 0 0 0 0 0 0 0 0 0
0 0 0 0 0 0 0 0 0 0 0 0 0 0 0 0 0 0 0 0 1 1 1 1 1 1 1 1 1 1 0 0 0 0 0 0 0 0 0 0 0 0 0 0 0 0 0 0 0
0 0 0 0 0 0 0 0 0 0 0 0 0 0 0 0 0 0 1 1 1 1 2 2 2 2 1 1 1 1 0 0 0 0 0 0 0 0 0 0 0 0 0 0 0 0 0 0 0
0 0 0 0 0 0 0 0 0 0 0 0 0 0 0 0 0 1 1 2 2 2 2 2 2 2 1 1 1 1 0 0 0 0 0 0 0 0 0 0 0 0 0 0 0 0 0 0 0
0 0 0 0 0 0 0 0 0 0 0 0 0 0 0 0 1 1 2 3 3 3 3 3 2 2 1 1 1 1 0 0 0 0 0 0 0 0 0 0 0 0 0 0 0 0 0 0 0
0 0 0 0 0 0 0 0 0 0 0 0 0 0 0 0 1 2 2 3 3 3 3 2 1 1 1 1 1 1 0 0 0 0 0 0 0 0 0 0 0 0 0 0 0 0 0 0 0
0 0 0 0 0 0 0 0 0 0 0 0 0 0 0 0 1 2 2 2 2 2 2 1 1 1 0 0 0 0 0 0 0 0 0 0 0 0 0 0 0 0 0 0 0 0 0 0 0
0 0 0 0 0 0 0 0 0 0 0 0 0 0 0 0 1 1 1 1 1 1 1 1 0 0 0 0 0 0 0 0 0 0 0 0 0 0 0 0 0 0 0 0 0 0 0 0 0
0 0 0 0 0 0 0 0 0 0 0 0 0 0 0 0 0 0 1 1 1 1 0 0 0 0 0 0 0 0 0 0 0 0 0 0 0 0 0 0 0 0 0 0 0 0 0 0 0
0 0 0 0 0 0 0 0 0 0 0 0 0 0 0 0 0 0 0 0 0 0 0 0 0 0 0 0 0 0 0 0 0 0 0 0 0 0 0 0 0 0 0 0 0 0 0 0 0
0 0 0 0 0 0 0 0 0 0 0 0 0 0 0 0 0 0 0 0 0 0 0 0 0 0 0 0 0 0 0 0 0 0 0 0 0 0 0 0 0 0 0 0 0 0 0 0 0
0 0 0 0 0 0 0 0 0 0 0 0 0 0 0 0 0 0 0 0 0 0 0 0 0 0 0 0 0 0 0 0 0 0 0 0 0 0 0 0 0 0 0 0 0 0 0 0 0
Wind_Speed
7 5 2 2 6 6 2 1 3 2 2 4 7 10 8 5 3 4 4 12 14 14 11 13 14 13 13 13 12 12 12 11 10 11 12 12 12 12 11 11 11 11 11 11 12 12 11 10 9
4 3 2 4 6 4 1 2 4 2 5 9 8 7 7 4 4 7 6 13 16 15 11 11 14 13 13 13 12 12 11 11 11 11 12 12 11 11 11 11 11 11 12 12 12 12 12 10 9
4 1 3 4 2 3 2 4 4 2 5 7 5 4 6 6 5 5 10 17 14 13 10 11 15 14 13 13 12 12 11 11 11 11 12 12 11 11 11 11 11 12 12 11 11 11 11 10 9
2 4 5 5 2 3 4 4 3 4 5 6 7 6 4 4 5 8 16 16 14 12 10 11 15 14 13 13 13 12 12 11 11 11 12 12 11 11 11 11 11 11 12 11 10 9 9 9 8
3 5 6 3 5 5 3 2 3 4 5 4 7 6 4 2 10 16 16 14 13 10 9 11 14 13 13 12 12 12 12 11 11 11 11 12 11 10 11 11 10 10 10 10 9 8 7 6 6
4 5 4 2 6 6 4 1 3 5 7 7 8 6 3 5 10 14 14 13 12 11 9 9 13 13 12 12 12 12 12 12 12 11 12 12 11 10 10 10 10 9 9 9 8 7 5 3 3
5 4 2 3 6 5 4 2 4 5 7 7 9 7 5 5 8 13 13 12 11 10 9 6 7 8 11 12 12 13 13 13 12 12 12 12 11 10 10 10 10 9 10 9 7 5 3 1 2
5 5 3 2 5 6 3 1 4 6 5 9 7 10 8 8 10 12 12 10 10 8 9 8 6 6 5 6 11 13 13 13 12 12 12 12 11 10 10 9 9 10 10 9 7 5 2 1 2
4 5 2 2 3 7 5 0 0 3 5 4 4 6 11 15 13 13 10 6 8 8 7 7 7 6 6 6 9 11 13 13 12 10 13 10 5 5 5 7 9 9 10 9 7 5 3 2 2
5 3 4 4 5 6 6 2 1 4 5 4 7 8 14 15 14 14 13 10 10 9 8 7 7 7 7 7 5 4 5 6 5 4 6 4 4 3 5 8 10 9 8 7 6 4 3 2 2
4 4 5 7 9 6 5 5 1 5 4 7 13 16 16 15 15 15 15 13 12 12 12 10 9 8 8 5 5 3 3 4 4 5 5 4 3 3 3 2 3 4 5 2 1 1 2 2 1
2 4 4 5 7 4 3 3 2 3 6 13 19 21 19 17 16 16 16 15 12 12 13 13 12 10 8 7 6 5 4 4 3 4 6 4 3 3 3 2 2 2 2 2 0 1 1 1 3
2 3 2 2 2 4 5 5 3 4 3 13 17 18 19 18 16 14 14 14 12 14 13 14 13 12 9 7 5 6 5 5 5 5 5 6 5 5 4 3 3 3 3 2 1 0 2 5 5
4 5 5 5 5 3 5 7 4 6 3 14 18 18 18 19 18 13 12 13 13 15 15 14 14 13 11 8 7 6 5 5 5 5 7 8 6 6 5 4 4 4 4 3 2 3 4 4 4
4 5 7 5 6 5 4 7 6 6 6 9 18 17 18 17 16 15 16 16 16 16 15 15 15 14 13 10 9 7 6 5 5 5 6 8 8 8 7 6 5 5 4 3 3 4 3 4 4
4 3 3 3 8 7 1 8 2 7 7 2 9 14 16 16 17 15 16 16 15 15 15 16 15 14 13 10 8 6 6 6 5 4 4 7 8 9 7 6 6 5 4 3 4 4 4 3 3
3 2 3 3 5 5 3 5 5 6 8 6 2 7 12 13 14 13 15 17 16 16 16 15 13 15 13 10 7 6 5 5 4 4 4 4 5 6 6 6 6 6 4 4 6 3 4 3 3
2 2 3 4 4 3 3 6 9 4 5 5 5 4 5 9 14 15 16 17 16 15 14 13 11 13 10 7 5 3 4 3 3 3 3 3 2 3 4 4 6 5 4 4 5 5 3 3 4
3 2 4 4 2 2 5 9 12 6 4 4 5 6 7 7 9 13 17 17 14 12 13 12 11 11 9 6 5 4 4 3 3 3 4 4 3 3 3 2 4 5 5 6 6 4 4 3 3
3 3 5 4 2 3 6 10 11 8 5 4 4 5 8 8 4 8 13 14 14 14 13 12 11 11 10 7 5 4 4 3 3 3 3 4 4 4 4 4 3 4 4 6 6 5 4 3 3
4 5 5 5 2 2 4 9 7 6 3 4 5 4 4 6 5 8 11 12 13 13 13 11 10 9 8 8 5 4 3 3 2 2 3 4 5 5 4 5 4 3 4 5 6 6 7 5 2
6 8 7 4 0 3 1 6 9 6 7 5 5 4 2 3 2 5 9 11 12 12 11 11 10 9 8 8 7 7 5 4 5 4 3 4 4 4 4 5 5 5 3 4 6 6 5 7 4
4 2 2 2 2 2 1 3 9 6 7 7 6 5 2 1 1 3 6 9 9 10 11 11 10 8 7 7 7 6 4 3 2 2 3 4 3 3 4 4 5 5 4 5 5 5 5 5 5
3 6 5 4 3 2 4 5 6 7 11 12 11 8 4 3 5 4 5 8 9 8 6 7 9 7 6 6 6 6 6 5 4 3 3 3 2 2 3 4 4 5 4 5 5 6 7 5 5
7 6 5 5 2 5 3 2 3 10 13 15 16 15 10 1 8 9 8 8 8 7 4 4 7 6 6 6 5 6 6 6 5 4 4 3 2 2 2 2 3 3 4 4 4 5 6 7 7
2 5 4 3 4 4 3 1 4 10 13 15 17 18 16 8 4 6 9 8 7 7 6 5 6 6 6 6 5 4 5 4 3 4 4 4 3 3 2 2 3 3 3 4 4 4 5 5 6
4 1 2 3 3 3 4 1 4 15 18 20 20 20 19 15 9 6 5 5 5 7 8 7 7 5 5 5 4 4 4 4 4 3 3 3 3 2 3 3 2 2 2 3 4 3 4 4 5
4 2 3 1 2 3 1 5 9 17 18 18 18 18 17 14 11 8 6 3 2 5 5 5 6 6 5 5 4 4 5 5 4 4 4 4 4 3 4 3 2 2 2 2 2 2 2 4 4
6 5 3 1 2 1 2 4 9 12 13 14 14 15 14 13 10 7 4 3 6 5 4 5 6 6 6 5 4 3 3 4 4 4 5 5 4 4 5 4 3 3 3 2 2 2 2 3 3
3 2 2 1 2 2 3 4 8 10 11 11 13 14 14 12 7 5 6 8 8 6 5 5 6 6 5 5 4 3 3 4 4 4 5 5 5 5 5 4 4 4 4 4 3 3 2 3 3
Wind_Direction
308 310 125 86 51 50 84 180 138 94 61 69 92 94 94 88 112 139 142 148 141 148 160 160 157 154 147 141 137 132 130 131 129 124 121 120 116 112 109 106 103 100 99 98 96 96 96 99 102
318 320 101 61 72 68 25 189 118 128 131 118 90 95 92 77 97 114 122 144 144 149 156 158 161 160 155 150 144 137 133 131 128 125 126 124 121 120 115 111 110 107 105 103 101 100 99 98 97
301 329 65 57 75 156 171 207 170 124 114 126 95 70 90 123 120 123 144 143 143 149 152 160 164 165 162 157 150 146 140 135 132 129 129 127 126 123 117 115 114 113 111 107 104 103 102 98 94
25 41 48 55 314 239 182 199 166 110 85 92 99 64 57 126 144 132 142 145 145 149 153 161 165 167 166 162 157 154 150 146 142 138 136 135 135 129 123 121 120 118 118 114 109 105 101 98 93
80 69 49 11 290 275 239 188 132 121 115 97 95 86 51 55 120 133 144 146 144 146 152 162 165 166 167 165 162 162 158 155 151 148 144 142 140 134 127 125 125 121 121 123 119 109 101 95 90
64 68 67 312 292 296 279 193 103 95 110 114 106 106 117 138 130 139 145 146 146 147 150 160 164 164 167 167 166 165 163 161 158 153 148 147 145 140 133 129 131 129 130 133 130 126 121 103 77
97 93 128 260 289 289 247 153 109 111 135 152 132 107 131 162 147 142 143 143 144 146 148 150 155 162 168 168 167 165 164 163 160 154 150 149 149 146 138 136 139 136 137 140 144 149 149 110 31
119 101 125 255 283 277 263 145 141 127 146 142 130 136 160 178 146 138 139 139 144 146 153 155 153 152 154 162 166 164 164 163 161 158 155 154 154 151 145 143 148 143 145 152 160 171 185 339 352
90 86 153 236 276 283 294 296 181 112 119 127 134 149 155 151 138 135 136 133 148 156 161 162 159 153 150 155 164 163 164 164 162 162 161 152 139 139 143 155 161 155 157 163 171 182 211 268 335
99 129 194 197 236 271 297 281 180 84 82 72 76 100 135 145 146 149 155 161 165 169 174 169 167 162 160 164 148 152 155 156 153 156 151 141 145 160 160 177 171 172 172 174 182 201 258 306 2
150 182 197 205 227 253 291 314 273 124 140 165 149 147 153 156 160 163 169 174 177 175 178 176 173 172 171 157 153 151 147 150 155 161 156 151 155 162 152 172 181 191 189 191 220 270 291 290 330
237 233 218 207 215 232 259 305 322 189 189 175 161 159 163 168 174 176 177 182 180 177 181 178 174 175 175 162 163 162 161 166 168 177 170 159 157 158 163 174 193 212 218 220 267 319 280 160 136
293 280 312 281 251 241 270 268 254 251 185 158 161 164 173 178 184 186 182 181 177 180 180 176 171 171 171 165 168 171 176 182 181 177 178 172 169 174 174 184 200 216 226 220 195 253 113 110 113
264 298 303 308 313 284 260 268 259 258 215 158 171 178 183 185 188 186 181 182 178 180 180 173 171 170 169 172 174 176 180 186 185 181 182 182 180 182 178 187 199 218 224 212 176 166 140 117 114
301 323 326 351 343 315 281 269 253 308 309 183 183 190 191 193 190 189 184 182 179 179 177 175 173 170 173 176 179 178 184 186 193 192 185 182 183 190 187 191 195 214 224 192 147 152 125 110 105
333 339 309 339 0 330 259 240 265 355 0 273 200 202 199 200 197 193 183 180 178 175 176 178 176 173 176 177 181 177 182 186 195 195 186 180 181 186 185 190 195 199 187 159 149 152 123 116 115
348 297 280 311 10 357 12 271 306 342 13 11 300 228 214 208 204 193 183 179 178 177 176 177 174 173 177 175 175 173 172 180 183 184 186 188 184 178 180 190 194 182 164 159 159 154 138 141 139
294 311 312 304 323 352 339 290 298 321 350 357 357 326 263 225 210 192 181 178 178 177 174 175 170 170 167 159 147 143 151 171 169 175 191 183 190 183 174 194 192 177 162 162 158 153 142 155 156
197 258 280 268 271 310 282 284 290 295 309 325 344 347 328 280 239 189 178 175 173 172 170 170 165 165 155 151 154 154 166 174 180 193 199 186 179 170 164 190 199 183 175 175 163 148 144 143 134
210 258 268 271 302 305 286 281 278 273 252 255 288 320 327 317 280 190 172 169 169 172 171 167 160 159 159 155 153 153 151 166 177 181 193 197 185 177 179 184 199 200 182 175 171 151 141 145 150
232 223 233 244 313 338 319 300 293 292 285 271 268 269 303 305 246 190 167 164 164 169 166 158 147 142 143 140 130 114 99 94 124 178 200 212 198 193 184 182 179 204 199 189 184 172 153 154 170
247 233 211 205 193 296 335 299 295 301 307 291 283 274 289 308 257 178 163 158 163 160 144 135 132 130 134 138 142 146 155 167 185 185 199 221 215 202 190 186 184 188 193 202 203 186 167 149 160
245 271 189 175 169 295 270 246 289 325 319 307 294 286 268 68 97 157 165 150 139 132 129 130 127 127 134 138 145 146 148 161 160 166 194 215 224 215 196 184 182 186 189 198 206 190 185 163 159
49 37 35 52 84 274 240 202 300 355 346 343 336 328 304 132 109 94 89 99 95 90 105 129 132 135 140 142 144 147 152 155 156 173 192 207 211 209 197 186 189 195 193 197 202 196 192 185 166
47 57 10 346 335 247 246 183 29 5 14 10 359 353 337 127 126 122 109 96 98 108 133 151 142 145 152 149 152 158 163 168 180 190 202 201 197 211 215 189 196 200 204 203 195 194 197 188 179
320 135 166 236 256 289 301 136 70 11 11 13 12 9 8 13 70 120 130 130 139 150 173 175 166 161 163 162 168 173 175 174 190 201 197 197 195 207 201 187 193 198 202 203 199 201 200 195 193
1 40 169 179 246 273 283 57 44 7 8 6 5 7 7 2 8 38 70 100 144 170 183 180 172 172 176 177 181 193 199 194 200 200 187 178 177 182 179 176 181 182 183 195 195 205 207 195 201
26 38 45 112 216 228 321 49 6 360 357 352 355 354 352 355 4 18 33 21 222 202 184 173 174 184 187 188 194 201 202 194 184 169 171 172 174 169 166 181 199 196 174 161 170 185 192 192 204
9 26 17 24 257 212 97 64 8 353 346 342 341 339 336 336 343 353 352 286 251 234 198 182 185 187 189 187 188 178 171 163 159 166 179 180 180 178 182 190 199 202 197 183 171 176 175 194 210
75 57 29 53 331 328 114 85 354 347 339 337 333 325 319 310 301 276 256 253 252 241 218 204 196 194 192 174 155 156 151 158 169 187 195 191 191 190 191 191 192 200 205 202 197 201 193 205 221